User: anonymous
Location: Fort Wayne
(41.1310°N, 85.1290°W)
Time: 11:10:37
(UTC-04:00)
Language:

MetOp-A - Orbit

View from above orbital plane
View from above orbital plane
View from above satellite
View from above satellite

Ground track
Ground track

The orbit data is extracted from the following two-line orbital elements,

1 29499U 06044A   14206.14457718  .00000036  00000-0  36350-4 0  4071
2 29499 098.7227 265.2332 0001903 075.0727 339.0458 14.21477355402821
Epoch (UTC): 25 July 2014 03:28:11
Eccentricity: 0.0001903
inclination: 98.7227°
perigee height: 819 km
apogee height: 822 km
right ascension of ascending node: 265.2332°
argument of perigee: 75.0727°
revolutions per day: 14.21477355
mean anomaly at epoch: 339.0458°
orbit number at epoch: 40282

The dashed part of the orbit path shows where the satellite is in the earth's shadow,  

DLR